1537362001.23,61677,23.56,74674.5,23.67,-15.35,-14.83,0,*40
1537362002.48,61678,23.56,74676.0,23.67,-14.83,-14.33,0,*48
1537362003.73,61679,23.56,74676.8,23.67,-14.89,-14.75,0,*41
1537362004.96,61680,23.56,74672.8,23.69,-15.25,-14.97,0,*42
1537362006.19,61681,23.56,74674.3,23.69,-16.45,-16.17,0,*4C
1537362007.45,61682,23.56,74672.5,23.69,-14.83,-14.51,0,*47
1537362008.7,61683,23.56,74674.0,23.67,-15.49,-14.97,0,*45
1537362009.91,61684,23.56,74674.5,23.69,-15.67,-15.53,0,*49
1537362011.15,61685,23.56,74674.3,23.69,-16.23,-15.95,0,*41
1537362012.36,61686,23.56,74674.5,23.67,-16.45,-16.45,0,*42
1537362013.61,61687,23.56,74674.8,23.67,-16.89,-16.65,0,*41
1537362014.89,61688,23.56,74674.0,23.67,-16.23,-16.09,0,*44
1537362016.12,61689,23.56,74676.3,23.65,-14.89,-14.83,0,*45
1537362017.35,61690,23.56,74678.0,23.65,-15.89,-15.75,0,*44
1537362018.55,61691,23.56,74674.8,23.65,-15.75,-15.71,0,*42
1537362019.78,61692,23.56,74674.5,23.65,-15.75,-15.57,0,*45
1537362021.0,61693,23.56,74674.8,23.65,-15.11,-14.97,0,*4B
1537362022.22,61694,23.56,74674.5,23.65,-14.75,-14.61,0,*46
1537362023.44,61695,23.56,74674.0,23.67,-16.79,-16.93,0,*44
1537362024.71,61696,23.56,74674.5,23.67,-17.11,-17.25,0,*44
1537362025.94,61697,23.56,74674.8,23.63,-16.03,-16.03,0,*46
1537362027.19,61698,23.56,74672.0,23.65,-16.17,-16.23,0,*48
1537362028.41,61699,23.56,74672.5,23.63,-16.41,-16.37,0,*49
1537362029.64,61700,23.56,74672.8,23.63,-16.55,-16.55,0,*49
1537362030.86,61701,23.56,74674.8,23.63,-17.31,-17.31,0,*48
1537362032.07,61702,23.56,74674.5,23.61,-16.41,-16.41,0,*49
1537362033.3,61703,23.56,74674.0,23.61,-15.67,-15.81,0,*40
1537362034.55,61704,23.56,74672.3,23.61,-15.39,-15.57,0,*47
1537362035.8,61705,23.56,74672.0,23.61,-15.81,-15.85,0,*4A
1537362037.0,61706,23.56,74674.5,23.61,-16.45,-16.45,0,*4D
1537362038.23,61707,23.56,74674.5,23.61,-15.43,-15.71,0,*4D
1537362039.48,61708,23.56,74672.8,23.63,-17.17,-17.31,0,*45
1537362040.71,61709,23.56,74676.3,23.57,-16.65,-16.59,0,*48
1537362041.96,61710,23.56,74672.0,23.57,-15.85,-15.89,0,*43
1537362043.2,61711,23.56,74674.0,23.57,-15.43,-15.29,0,*42
1537362044.45,61712,23.56,74672.3,23.55,-15.29,-15.43,0,*43
1537362045.65,61713,23.56,74674.5,23.57,-15.71,-15.63,0,*4F
1537362046.88,61714,23.56,74674.5,23.61,-15.29,-15.43,0,*42
1537362048.15,61715,23.56,74674.3,23.63,-14.79,-14.75,0,*41
1537362049.35,61716,23.56,74674.0,23.57,-17.35,-17.49,0,*42
1537362050.57,61717,23.56,74674.3,23.57,-17.63,-17.69,0,*42
1537362051.77,61718,23.56,74672.3,23.57,-16.45,-16.45,0,*47
1537362053.02,61719,23.56,74676.8,23.55,-16.45,-16.51,0,*41
1537362054.27,61720,23.56,74672.8,23.55,-15.75,-15.85,0,*41
1537362055.52,61721,23.56,74674.0,23.55,-15.01,-14.89,0,*4E
1537362056.78,61722,23.56,74674.8,23.55,-15.35,-15.29,0,*41
1537362058.04,61723,23.56,74672.0,23.55,-15.01,-15.01,0,*4D
1537362059.27,61724,23.56,74672.0,23.57,-14.83,-14.69,0,*4C
1537362060.51,61725,23.56,74672.5,23.57,-14.97,-14.83,0,*4C
1537362061.72,61726,23.56,74676.0,23.57,-15.49,-15.49,0,*4A
1537362062.92,61727,23.56,74676.5,23.61,-15.67,-15.71,0,*49
1537362064.14,61728,23.56,74672.3,23.57,-15.81,-15.95,0,*41
1537362065.35,61729,23.56,74674.8,23.57,-16.75,-16.75,0,*45
1537362066.57,61730,23.56,74672.3,23.57,-15.89,-16.03,0,*4C
1537362067.82,61731,23.56,74676.8,23.57,-15.85,-15.89,0,*40
1537362069.03,61732,23.56,74672.8,23.57,-15.29,-15.25,0,*43
1537362070.28,61733,23.56,74674.5,23.57,-15.43,-15.57,0,*4B
1537362071.51,61734,23.56,74672.3,23.57,-15.57,-15.29,0,*40
1537362072.73,61735,23.56,74674.5,23.57,-15.57,-15.63,0,*4F
1537362073.98,61736,23.56,74674.3,23.61,-15.01,-14.79,0,*40
1537362075.2,61737,23.56,74674.8,23.61,-15.21,-15.11,0,*4C
1537362076.43,61738,23.56,74674.5,23.61,-15.67,-15.57,0,*43
1537362077.68,61739,23.56,74678.0,23.57,-15.89,-15.85,0,*48
1537362078.93,61740,23.56,74670.8,23.57,-15.89,-15.89,0,*4A
1537362080.15,61741,23.56,74676.3,23.57,-15.85,-15.99,0,*46
1537362081.37,61742,23.56,74672.0,23.57,-16.45,-16.51,0,*4D
1537362082.58,61743,23.56,74672.8,23.57,-15.71,-15.53,0,*49
1537362083.78,61744,23.56,74674.3,23.61,-18.07,-18.07,0,*4B
1537362085.01,61745,23.56,74672.0,23.55,-18.69,-18.73,0,*46
1537362086.25,61746,23.56,74674.8,23.53,-18.01,-18.11,0,*49
1537362087.47,61747,23.56,74674.0,23.49,-17.73,-17.63,0,*43
1537362088.73,61748,23.56,74672.3,23.49,-16.23,-16.13,0,*4E
1537362089.95,61749,23.56,74672.8,23.49,-15.07,-14.93,0,*40
1537362091.23,61750,23.56,74674.8,23.51,-16.27,-16.27,0,*4D
1537362092.45,61751,23.56,74676.0,23.51,-18.07,-18.17,0,*4D
1537362093.68,61752,23.63,74678.5,23.47,-19.31,-19.47,0,*49
1537362094.91,61753,23.56,74674.5,23.45,-17.87,-17.87,0,*4B
1537362096.18,61754,23.56,74672.0,23.45,-16.31,-16.31,0,*4C
1537362097.43,61755,23.56,74672.8,23.43,-17.25,-17.25,0,*4B
1537362098.71,61756,23.56,74672.0,23.41,-15.85,-15.85,0,*4A
1537362099.94,61757,23.56,74674.3,23.41,-16.37,-16.37,0,*4B
1537362101.16,61758,23.63,74676.5,23.43,-15.81,-15.67,0,*4E
1537362102.39,61759,23.56,74672.8,23.41,-16.83,-16.75,0,*4C
1537362103.61,61760,23.56,74672.3,23.43,-16.69,-16.45,0,*43
1537362104.82,61761,23.56,74672.3,23.43,-16.83,-16.75,0,*45
1537362106.07,61762,23.56,74672.3,23.41,-16.97,-16.69,0,*4C
1537362107.27,61763,23.56,74674.0,23.39,-16.93,-16.79,0,*47
1537362108.5,61764,23.56,74672.8,23.39,-16.79,-16.65,0,*49
1537362109.76,61765,23.63,74678.5,23.37,-15.81,-15.63,0,*47
1537362111.01,61766,23.63,74676.3,23.37,-15.49,-15.21,0,*46
1537362112.29,61767,23.56,74672.0,23.41,-15.35,-14.97,0,*41
1537362113.55,61768,23.56,74674.3,23.41,-16.37,-16.13,0,*41
1537362114.77,61769,23.56,74672.0,23.41,-17.73,-17.49,0,*4F
1537362115.99,61770,23.56,74674.3,23.39,-16.93,-16.65,0,*48
1537362117.2,61771,23.56,74676.0,23.39,-16.89,-16.59,0,*4D
1537362118.44,61772,23.56,74672.0,23.37,-15.95,-15.75,0,*43
1537362119.69,61773,23.63,74674.5,23.41,-15.99,-15.85,0,*40
1537362120.92,61774,23.56,74672.8,23.39,-15.71,-15.39,0,*49
1537362122.13,61775,23.56,74674.0,23.39,-15.75,-15.53,0,*40
1537362123.36,61776,23.56,74674.3,23.39,-16.03,-15.89,0,*46
1537362124.56,61777,23.56,74672.8,23.39,-15.99,-15.71,0,*40
1537362125.79,61778,23.56,74674.3,23.39,-15.57,-15.15,0,*4F
1537362127.07,61779,23.63,74674.5,23.41,-15.39,-14.97,0,*42
1537362128.32,61780,23.56,74672.5,23.41,-15.99,-15.81,0,*48
1537362129.54,61781,23.56,74672.8,23.41,-15.07,-14.69,0,*49
1537362130.76,61782,23.56,74672.0,23.41,-15.11,-14.69,0,*4D
1537362131.96,61783,23.63,74678.0,23.43,-15.07,-14.65,0,*45
1537362133.21,61784,23.63,74678.8,23.45,-15.15,-14.79,0,*4A
1537362134.46,61785,23.56,74672.3,23.45,-15.49,-15.01,0,*4C
1537362135.71,61786,23.63,74674.8,23.45,-16.31,-15.95,0,*4E
1537362136.99,61787,23.63,74676.8,23.45,-16.51,-16.17,0,*40
1537362138.25,61788,23.63,74674.0,23.45,-16.41,-16.09,0,*41
1537362139.53,61789,23.56,74674.0,23.45,-17.07,-16.65,0,*49
1537362140.78,61790,23.56,74672.3,23.45,-16.69,-16.37,0,*4F
1537362142.04,61791,23.63,74674.8,23.41,-16.75,-16.27,0,*46
1537362143.23,61792,23.63,74672.0,23.43,-15.99,-15.53,0,*46
1537362144.47,61793,23.56,74672.0,23.41,-16.41,-15.99,0,*45
1537362145.67,61794,23.56,74670.8,23.43,-15.99,-15.49,0,*4B
1537362146.93,61795,23.63,74672.3,23.41,-15.95,-15.39,0,*43
1537362148.12,61796,23.63,74674.3,23.43,-15.99,-15.53,0,*42
1537362149.35,61797,23.63,74674.8,23.41,-15.99,-15.53,0,*41
1537362150.55,61798,23.63,74674.5,23.43,-15.71,-15.11,0,*4C
1537362151.78,61799,23.63,74674.3,23.45,-15.15,-14.61,0,*4F
1537362153.0,61800,23.63,74676.5,23.43,-15.57,-15.07,0,*41
1537362154.28,61801,23.63,74674.8,23.45,-15.81,-15.21,0,*49
1537362155.5,61802,23.63,74678.5,23.45,-16.93,-16.55,0,*4A
1537362156.76,61803,23.63,74674.0,23.45,-15.81,-15.29,0,*43
1537362158.04,61804,23.63,74676.0,23.41,-17.59,-17.11,0,*4E
1537362159.24,61805,23.63,74678.0,23.43,-16.41,-15.95,0,*4B
1537362160.47,61806,23.63,74674.3,23.43,-15.67,-15.21,0,*40
1537362161.7,61807,23.63,74676.3,23.41,-18.49,-17.87,0,*4C
1537362162.94,61808,23.63,74674.3,23.39,-19.27,-18.73,0,*41
1537362164.17,61809,23.63,74672.3,23.37,-18.79,-18.25,0,*47
1537362165.45,61810,23.63,74676.8,23.33,-17.93,-17.41,0,*4D
1537362166.7,61811,23.63,74672.0,23.33,-16.83,-16.27,0,*4D
1537362167.9,61812,23.63,74672.8,23.31,-17.73,-17.31,0,*44
1537362169.16,61813,23.63,74674.0,23.31,-18.01,-17.59,0,*41
1537362170.39,61814,23.63,74672.8,23.31,-18.01,-17.31,0,*48
1537362171.65,61815,23.63,74676.3,23.29,-16.75,-16.13,0,*4C
1537362172.91,61816,23.63,74676.3,23.27,-17.97,-17.55,0,*4F
1537362174.14,61817,23.56,74670.5,23.27,-16.65,-15.99,0,*40
1537362175.38,61818,23.63,74672.8,23.27,-15.89,-15.29,0,*45
1537362176.58,61819,23.63,74672.8,23.27,-17.35,-16.89,0,*48
1537362177.79,61820,23.63,74672.3,23.27,-16.41,-15.71,0,*44
1537362179.05,61821,23.63,74674.5,23.27,-15.57,-14.97,0,*48
1537362180.26,61822,23.63,74672.3,23.27,-15.71,-15.29,0,*4B
1537362181.49,61823,23.63,74676.3,23.29,-16.59,-16.03,0,*46
1537362182.76,61824,23.63,74672.8,23.29,-16.03,-15.39,0,*44
1537362184.02,61825,23.63,74674.3,23.27,-17.17,-16.65,0,*45
1537362185.24,61826,23.63,74674.3,23.27,-17.45,-16.89,0,*43
1537362186.46,61827,23.63,74672.8,23.27,-16.41,-15.71,0,*43
1537362187.69,61828,23.63,74674.8,23.27,-18.07,-17.63,0,*41
1537362188.92,61829,23.63,74672.8,23.27,-16.79,-16.17,0,*45
1537362190.13,61830,23.63,74672.0,23.27,-15.75,-15.11,0,*47
1537362191.35,61831,23.63,74672.3,23.27,-16.31,-15.71,0,*43
1537362192.58,61832,23.63,74676.0,23.27,-17.17,-16.45,0,*41
1537362193.82,61833,23.63,74672.8,23.27,-17.69,-17.07,0,*4E
1537362195.07,61834,23.63,74674.5,23.25,-16.93,-16.23,0,*48
1537362196.3,61835,23.63,74672.3,23.27,-16.45,-15.89,0,*43
1537362197.52,61836,23.63,74674.8,23.27,-16.31,-15.67,0,*43
1537362198.77,61837,23.63,74672.0,23.25,-16.03,-15.35,0,*46
1537362200.03,61838,23.63,74674.0,23.25,-17.21,-16.59,0,*41
1537362201.24,61839,23.63,74674.8,23.27,-17.31,-16.79,0,*41
1537362202.5,61840,23.63,74678.5,23.25,-16.65,-15.75,0,*42
1537362203.73,61841,23.56,74670.5,23.25,-16.45,-15.71,0,*45
1537362205.01,61842,23.63,74672.8,23.25,-16.23,-15.57,0,*42
1537362206.24,61843,23.63,74672.8,23.27,-16.31,-15.71,0,*46
1537362207.44,61844,23.63,74674.5,23.27,-16.89,-16.41,0,*42
1537362208.68,61845,23.63,74678.8,23.25,-16.03,-15.29,0,*4E
1537362209.94,61846,23.63,74676.5,23.25,-15.29,-14.55,0,*4C
1537362211.22,61847,23.63,74676.3,23.25,-15.57,-14.79,0,*4A
1537362212.45,61848,23.63,74674.3,23.27,-16.79,-16.13,0,*46
1537362213.69,61849,23.63,74676.3,23.29,-16.41,-15.71,0,*45
1537362214.89,61850,23.63,74672.0,23.27,-17.49,-16.93,0,*45
1537362216.14,61851,23.63,74674.8,23.27,-17.03,-16.31,0,*42
1537362217.4,61852,23.63,74672.8,23.27,-17.55,-17.21,0,*42
1537362218.63,61853,23.63,74678.3,23.25,-18.41,-17.83,0,*43
1537362219.87,61854,23.63,74672.3,23.23,-17.41,-16.83,0,*4C
1537362221.1,61855,23.63,74672.0,23.23,-16.83,-16.23,0,*48
1537362222.36,61856,23.63,74672.3,23.25,-16.83,-16.23,0,*4D
1537362223.62,61857,23.63,74672.5,23.23,-17.17,-16.65,0,*44
1537362224.87,61858,23.63,74672.3,23.23,-17.59,-17.11,0,*43
1537362226.11,61859,23.63,74672.0,23.23,-17.41,-16.83,0,*41
1537362227.36,61860,23.63,74674.0,23.21,-17.21,-16.89,0,*45
1537362228.57,61861,23.63,74674.0,23.19,-16.89,-16.45,0,*4C
1537362229.83,61862,23.63,74670.8,23.19,-17.59,-17.07,0,*44
1537362231.06,61863,23.63,74672.8,23.19,-17.07,-16.55,0,*48
1537362232.3,61864,23.63,74672.0,23.17,-16.37,-15.75,0,*42
1537362233.53,61865,23.63,74672.3,23.17,-15.49,-14.89,0,*4B
1537362234.82,61866,23.63,74670.3,23.17,-16.65,-16.23,0,*47
1537362236.1,61867,23.63,74668.0,23.17,-16.65,-16.31,0,*45
1537362237.33,61868,23.63,74672.0,23.17,-16.79,-16.37,0,*41
1537362238.58,61869,23.63,74670.5,23.15,-16.79,-16.51,0,*42
1537362239.81,61870,23.63,74668.8,23.17,-16.37,-16.03,0,*45
1537362241.08,61871,23.63,74672.0,23.17,-16.17,-15.49,0,*4B
1537362242.31,61872,23.63,74672.8,23.17,-15.75,-15.15,0,*46
1537362243.59,61873,23.63,74674.5,23.17,-15.35,-14.83,0,*4D
1537362244.85,61874,23.63,74672.0,23.17,-15.71,-15.21,0,*43
1537362246.08,61875,23.63,74674.3,23.19,-15.67,-15.01,0,*49
1537362247.35,61876,23.63,74672.3,23.17,-15.21,-14.55,0,*46
1537362248.58,61877,23.63,74672.3,23.19,-15.57,-14.89,0,*49
1537362249.82,61878,23.63,74674.0,23.19,-15.29,-14.55,0,*4E
1537362251.05,61879,23.63,74674.0,23.19,-16.45,-15.85,0,*4A
1537362252.29,61880,23.63,74672.5,23.19,-15.89,-15.25,0,*45
1537362253.52,61881,23.63,74674.0,23.19,-15.57,-15.11,0,*40
1537362254.77,61882,23.63,74674.5,23.19,-15.85,-15.29,0,*47
1537362255.99,61883,23.63,74670.3,23.23,-15.11,-14.55,0,*48
1537362257.26,61884,23.63,74672.8,23.21,-16.41,-15.85,0,*47
1537362258.49,61885,23.63,74672.5,23.19,-16.59,-16.17,0,*4C
1537362259.76,61886,23.63,74674.8,23.19,-15.89,-15.43,0,*43
1537362260.99,61887,23.63,74672.3,23.19,-15.57,-14.89,0,*46
1537362262.25,61888,23.63,74672.0,23.19,-16.13,-15.57,0,*48
1537362263.51,61889,23.63,74670.8,23.19,-15.43,-14.83,0,*47
1537362264.72,61890,23.63,74672.0,23.19,-16.03,-15.53,0,*44
1537362265.95,61891,23.63,74678.3,23.19,-16.31,-15.99,0,*42
1537362267.18,61892,23.63,74672.3,23.15,-19.07,-18.73,0,*4E
1537362268.44,61893,23.63,74674.8,23.15,-16.55,-16.09,0,*44
1537362269.69,61894,23.63,74674.5,23.15,-15.53,-14.97,0,*43
1537362270.94,61895,23.63,74674.3,23.15,-15.11,-14.75,0,*48
1537362272.17,61896,23.63,74674.0,23.17,-15.15,-14.61,0,*48
1537362273.45,61897,23.63,74674.3,23.15,-16.27,-16.09,0,*45
1537362274.67,61898,23.63,74674.5,23.15,-17.31,-16.97,0,*4B
1537362275.9,61899,23.63,74672.0,23.15,-15.63,-15.11,0,*42
1537362277.18,61900,23.63,74672.3,23.15,-16.65,-16.13,0,*47
1537362278.46,61901,23.63,74672.8,23.15,-16.23,-15.89,0,*44
1537362279.71,61902,23.63,74674.5,23.15,-14.79,-14.23,0,*4B
1537362280.93,61903,23.63,74672.5,23.15,-14.89,-14.33,0,*44
1537362282.2,61904,23.63,74672.8,23.15,-15.21,-14.79,0,*4E
1537362283.46,61905,23.63,74672.0,23.17,-15.49,-15.01,0,*4D
1537362284.71,61906,23.63,74674.0,23.17,-15.35,-14.89,0,*44
1537362285.95,61907,23.63,74672.0,23.17,-15.95,-15.49,0,*42
1537362287.21,61908,23.63,74672.8,23.15,-15.63,-14.97,0,*44
1537362288.46,61909,23.63,74674.3,23.17,-15.21,-14.61,0,*48
1537362289.66,61910,23.63,74674.5,23.19,-15.25,-14.69,0,*42
1537362290.92,61911,23.63,74674.3,23.17,-14.83,-14.19,0,*47
1537362292.18,61912,23.63,74674.5,23.17,-16.37,-15.89,0,*41
1537362293.43,61913,23.63,74672.3,23.17,-16.75,-16.31,0,*46
1537362294.69,61914,23.63,74674.0,23.17,-16.79,-16.31,0,*4D
1537362295.92,61915,23.63,74672.8,23.15,-15.95,-15.53,0,*48
1537362297.18,61916,23.63,74672.3,23.17,-17.11,-16.59,0,*4E
1537362298.43,61917,23.63,74672.3,23.15,-16.69,-16.37,0,*4B
1537362299.69,61918,23.63,74674.0,23.15,-16.55,-16.13,0,*4D
1537362300.96,61919,23.63,74674.3,23.11,-15.39,-14.93,0,*4B
1537362302.21,61920,23.63,74674.0,23.15,-15.49,-14.93,0,*42
1537362303.47,61921,23.63,74672.8,23.15,-15.89,-15.53,0,*42
1537362304.69,61922,23.63,74674.8,23.15,-18.17,-17.69,0,*40
1537362305.94,61923,23.63,74672.8,23.11,-18.55,-18.21,0,*40
1537362307.17,61924,23.63,74672.0,23.09,-18.55,-18.07,0,*4A
1537362308.42,61925,23.63,74672.8,23.07,-16.75,-16.23,0,*41
1537362309.71,61926,23.63,74674.5,23.07,-16.09,-15.57,0,*49
1537362310.91,61927,23.63,74674.8,23.05,-15.63,-15.07,0,*40
1537362312.11,61928,23.63,74670.8,23.05,-15.63,-15.07,0,*4F
1537362313.37,61929,23.63,74672.8,23.05,-15.81,-15.21,0,*46
1537362314.62,61930,23.69,74674.8,23.07,-16.59,-16.23,0,*4B
1537362315.87,61931,23.63,74674.0,23.07,-16.51,-16.03,0,*40
1537362317.08,61932,23.69,74676.0,23.09,-16.37,-15.71,0,*4B
1537362318.34,61933,23.63,74674.5,23.07,-15.85,-15.29,0,*43
1537362319.54,61934,23.69,74674.0,23.09,-15.99,-15.53,0,*4A
1537362320.8,61935,23.63,74674.8,23.09,-15.85,-15.43,0,*47
1537362322.05,61936,23.63,74670.5,23.07,-16.31,-15.75,0,*43
1537362323.32,61937,23.63,74674.0,23.07,-17.63,-17.21,0,*47
1537362324.58,61938,23.69,74672.8,23.07,-17.83,-17.41,0,*40
1537362325.79,61939,23.69,74672.0,23.05,-18.07,-17.69,0,*4A
1537362327.0,61940,23.63,74672.0,23.03,-17.73,-17.31,0,*43
1537362328.26,61941,23.63,74670.0,23.03,-17.83,-17.45,0,*4E
1537362329.46,61942,23.63,74672.3,23.01,-16.83,-16.41,0,*4B
1537362330.69,61943,23.63,74672.0,23.01,-16.59,-16.27,0,*4D
1537362331.92,61944,23.69,74672.5,23.01,-16.59,-16.13,0,*4D
1537362333.17,61945,23.63,74672.3,23.03,-16.27,-15.75,0,*44
1537362334.4,61946,23.63,74672.0,23.01,-16.55,-16.09,0,*48
1537362335.63,61947,23.69,74674.3,23.01,-16.45,-15.85,0,*4F
1537362336.86,61948,23.63,74670.8,23.01,-16.17,-15.71,0,*4C
1537362338.09,61949,23.63,74674.8,23.01,-17.07,-16.59,0,*44
1537362339.31,61950,23.63,74674.0,23.01,-15.99,-15.57,0,*44
1537362340.51,61951,23.69,74672.8,23.01,-15.67,-15.07,0,*41
1537362341.74,61952,23.69,74672.8,23.01,-16.27,-15.71,0,*44
1537362342.97,61953,23.63,74670.0,23.01,-16.41,-15.85,0,*4E
1537362344.25,61954,23.63,74670.8,23.03,-17.03,-16.65,0,*41
1537362345.47,61955,23.63,74670.8,23.01,-16.89,-16.31,0,*40
1537362346.7,61956,23.69,74672.8,23.01,-16.31,-15.71,0,*47
1537362347.92,61957,23.63,74668.3,23.01,-17.21,-16.83,0,*48
1537362349.18,61958,23.63,74670.0,22.99,-16.51,-15.99,0,*49
1537362350.41,61959,23.69,74672.5,23.01,-15.85,-15.25,0,*45
1537362351.68,61960,23.69,74674.0,22.99,-15.85,-15.29,0,*43
1537362352.96,61961,23.69,74668.5,22.99,-15.35,-14.83,0,*48
1537362354.19,61962,23.69,74672.0,23.01,-15.85,-15.29,0,*41
1537362355.44,61963,23.69,74672.3,23.03,-15.53,-14.93,0,*49
1537362356.7,61964,23.69,74672.3,23.01,-15.43,-14.79,0,*49
1537362357.96,61965,23.69,74674.8,23.01,-16.09,-15.43,0,*4D
1537362359.21,61966,23.69,74672.0,23.03,-16.41,-15.81,0,*4E
1537362360.46,61967,23.69,74670.3,23.03,-15.53,-14.93,0,*4D
1537362361.69,61968,23.63,74668.5,23.03,-15.75,-15.11,0,*4D
1537362362.94,61969,23.69,74672.0,23.03,-15.63,-14.93,0,*40
1537362364.19,61970,23.69,74672.3,23.03,-14.79,-14.15,0,*4C
1537362365.44,61971,23.63,74670.3,23.05,-14.75,-14.05,0,*46
1537362366.72,61972,23.69,74674.8,23.07,-14.83,-14.51,0,*4F
1537362367.95,61973,23.69,74672.8,23.07,-16.59,-16.03,0,*4E
1537362369.18,61974,23.63,74668.3,23.05,-16.03,-15.39,0,*4E
1537362370.43,61975,23.69,74672.3,23.07,-15.63,-15.01,0,*43
1537362371.69,61976,23.69,74672.8,23.07,-16.45,-15.89,0,*47
1537362372.97,61977,23.69,74668.8,23.07,-15.85,-15.21,0,*4B
1537362374.24,61978,23.69,74672.0,23.07,-15.43,-14.83,0,*47
1537362375.47,61979,23.69,74668.0,23.09,-15.53,-14.93,0,*48
1537362376.72,61980,23.63,74668.5,23.09,-15.57,-15.01,0,*40
1537362377.95,61981,23.69,74672.0,23.09,-15.39,-14.69,0,*46
1537362379.18,61982,23.69,74674.5,23.07,-15.15,-14.61,0,*4D
1537362380.43,61983,23.69,74670.8,23.07,-16.03,-15.35,0,*48
1537362381.68,61984,23.69,74670.5,23.11,-15.53,-14.83,0,*42
1537362382.95,61985,23.69,74672.3,23.11,-15.43,-14.79,0,*47
1537362384.19,61986,23.69,74668.5,23.11,-15.95,-15.25,0,*47
1537362385.41,61987,23.69,74672.3,23.09,-15.81,-15.15,0,*49
1537362386.67,61988,23.69,74674.0,23.11,-15.81,-15.25,0,*4C
1537362387.95,61989,23.69,74672.3,23.11,-16.13,-15.43,0,*45
1537362389.18,61990,23.69,74668.8,23.11,-16.55,-15.95,0,*44
1537362390.43,61991,23.69,74668.8,23.11,-15.67,-15.01,0,*4A
1537362391.68,61992,23.69,74672.3,23.11,-16.03,-15.43,0,*4E
1537362392.91,61993,23.69,74668.8,23.11,-15.95,-15.29,0,*4F
1537362394.16,61994,23.69,74672.8,23.11,-15.39,-14.69,0,*4B
1537362395.41,61995,23.69,74674.0,23.11,-16.83,-16.13,0,*47
1537362396.66,61996,23.69,74670.8,23.09,-17.59,-17.17,0,*4E
1537362397.86,61997,23.69,74668.5,23.09,-17.35,-16.93,0,*48
1537362399.06,61998,23.69,74668.0,23.09,-18.07,-17.73,0,*46
1537362400.29,61999,23.69,74670.3,23.07,-17.35,-16.89,0,*43
1537362401.49,62000,23.69,74672.0,23.05,-17.31,-16.93,0,*44
1537362402.74,62001,23.69,74670.5,23.05,-17.59,-17.17,0,*46
1537362403.94,62002,23.69,74670.5,23.01,-18.21,-17.73,0,*43
1537362405.19,62003,23.69,74670.5,23.03,-17.41,-16.83,0,*47
1537362406.44,62004,23.69,74670.3,23.01,-15.81,-15.39,0,*4E
1537362407.7,62005,23.69,74668.0,23.01,-15.39,-14.93,0,*4D
1537362408.9,62006,23.69,74674.0,23.01,-15.67,-15.07,0,*49
1537362410.15,62007,23.69,74672.8,23.03,-15.25,-14.79,0,*44
1537362411.38,62008,23.69,74668.8,23.05,-15.89,-15.49,0,*49
1537362412.63,62009,23.69,74670.5,23.05,-15.21,-14.79,0,*48
1537362413.87,62010,23.69,74672.3,23.07,-15.01,-14.69,0,*41
1537362415.07,62011,23.69,74672.3,23.05,-14.89,-14.33,0,*4C
1537362416.3,62012,23.69,74668.5,23.09,-15.01,-14.65,0,*41
1537362417.53,62013,23.69,74674.8,23.05,-15.75,-15.35,0,*4B
1537362418.78,62014,23.69,74668.8,23.07,-15.49,-14.97,0,*48
1537362420.02,62015,23.69,74672.0,23.07,-15.63,-15.29,0,*45
1537362421.25,62016,23.69,74670.3,23.09,-17.35,-17.03,0,*43
1537362422.53,62017,23.69,74674.3,23.07,-17.97,-17.79,0,*49
1537362423.77,62018,23.69,74668.3,23.05,-18.89,-18.59,0,*49
1537362425.02,62019,23.69,74674.0,23.03,-17.69,-17.25,0,*4B
1537362426.25,62020,23.69,74670.5,23.01,-17.79,-17.35,0,*43
1537362427.47,62021,23.69,74674.0,23.01,-16.31,-15.95,0,*47
1537362428.75,62022,23.69,74672.8,22.99,-16.65,-16.31,0,*48
1537362430.0,62023,23.69,74668.5,22.99,-18.59,-18.45,0,*45
1537362431.29,62024,23.69,74672.0,22.99,-18.31,-17.93,0,*48
1537362432.54,62025,23.69,74670.5,22.97,-17.59,-17.25,0,*4B
1537362433.76,62026,23.69,74672.5,22.95,-16.79,-16.41,0,*4A
1537362435.0,62027,23.69,74668.0,22.95,-17.11,-16.93,0,*4B
1537362436.26,62028,23.69,74674.0,22.95,-16.55,-16.09,0,*46
1537362437.49,62029,23.69,74670.3,22.93,-16.27,-15.95,0,*42
1537362438.74,62030,23.69,74670.5,22.95,-16.93,-16.69,0,*43
1537362439.99,62031,23.69,74674.0,22.93,-17.59,-17.59,0,*41
1537362441.2,62032,23.69,74668.8,22.93,-18.25,-18.07,0,*42
1537362442.43,62033,23.69,74668.0,22.93,-16.89,-16.69,0,*4D
1537362443.65,62034,23.69,74670.0,22.93,-17.03,-16.89,0,*47
1537362444.86,62035,23.69,74672.3,22.93,-16.89,-16.83,0,*4F
1537362446.1,62036,23.69,74668.5,22.93,-16.41,-16.09,0,*4A
1537362447.33,62037,23.69,74668.3,22.89,-16.45,-16.27,0,*48
1537362448.54,62038,23.69,74670.3,22.93,-16.55,-16.41,0,*4D
1537362449.8,62039,23.69,74668.8,22.89,-16.51,-16.27,0,*43
1537362451.01,62040,23.69,74672.3,22.89,-16.59,-16.59,0,*4C
1537362452.24,62041,23.69,74674.8,22.89,-16.59,-16.31,0,*43
1537362453.45,62042,23.69,74670.5,22.89,-16.89,-16.75,0,*4D
1537362454.69,62043,23.69,74672.3,22.89,-16.59,-16.31,0,*41
1537362455.92,62044,23.69,74670.8,22.89,-16.37,-16.31,0,*4E
1537362457.18,62045,23.69,74672.3,22.89,-16.31,-16.17,0,*4D
1537362458.41,62046,23.69,74674.3,22.89,-16.03,-15.89,0,*4B
1537362459.65,62047,23.69,74672.0,22.89,-16.37,-16.17,0,*49
1537362460.89,62048,23.69,74670.3,22.89,-16.65,-16.59,0,*4B
1537362462.12,62049,23.69,74668.5,22.89,-16.31,-16.03,0,*44
1537362463.33,62050,23.69,74668.3,22.89,-16.75,-16.59,0,*43
1537362464.56,62051,23.69,74668.3,22.89,-17.07,-16.93,0,*40
1537362465.77,62052,23.69,74672.8,22.89,-17.83,-17.69,0,*4B
1537362467.05,62053,23.69,74670.3,22.87,-16.69,-16.65,0,*4C
1537362468.29,62054,23.69,74674.0,22.87,-16.79,-16.83,0,*42
1537362469.57,62055,23.69,74672.5,22.87,-16.09,-15.89,0,*4D
1537362470.81,62056,23.69,74668.5,22.89,-16.27,-16.59,0,*42
1537362472.04,62057,23.69,74668.5,22.87,-18.21,-18.21,0,*44
1537362473.3,62058,23.69,74670.5,22.87,-18.35,-18.45,0,*4C
1537362474.58,62059,23.69,74670.8,22.87,-17.21,-17.41,0,*4C
1537362475.83,62060,23.69,74672.8,22.85,-17.21,-17.25,0,*46
1537362477.06,62061,23.69,74670.8,22.85,-17.59,-17.69,0,*40
1537362478.32,62062,23.69,74670.8,22.83,-17.41,-17.59,0,*4F
1537362479.53,62063,23.69,74672.3,22.85,-16.79,-16.93,0,*45
1537362480.79,62064,23.69,74672.8,22.83,-17.45,-17.59,0,*4D
1537362482.04,62065,23.69,74670.3,22.83,-17.93,-18.01,0,*45
1537362483.27,62066,23.69,74670.5,22.83,-17.79,-17.87,0,*43
1537362484.5,62067,23.69,74666.3,22.79,-17.35,-17.41,0,*45
1537362485.73,62068,23.69,74670.5,22.79,-17.97,-18.11,0,*48
1537362486.96,62069,23.69,74668.5,22.79,-18.11,-18.31,0,*4A
1537362488.18,62070,23.69,74672.8,22.79,-18.17,-18.31,0,*44
1537362489.42,62071,23.69,74668.3,22.77,-17.69,-17.83,0,*4B
1537362490.62,62072,23.69,74670.3,22.75,-18.07,-18.17,0,*4F
1537362491.9,62073,23.69,74668.0,22.73,-17.93,-17.93,0,*49
1537362493.19,62074,23.69,74668.8,22.73,-17.97,-17.97,0,*4E
1537362494.45,62075,23.69,74666.8,22.73,-17.93,-18.07,0,*4D
1537362495.71,62076,23.69,74668.5,22.73,-17.97,-18.11,0,*4D